Showing default

HULIANWANG DIGUI-86, 65821

Orbit data source: Space-Track

HULIANWANG DIGUI-86, 65821 is a payload satellite owned by Zhongguo Xingwang (CN) in LEO that was launched on Sat, 27 Sep 2025 UTC via a CHANG ZHENG 6A launch vehicle from the Taiyaun Space Center, China (TSC). Payload-class satellites include a variety of spacecraft equipped with specific instruments for various scientific and technological missions. These include communications satellites like Starlink; space stations such as the ISS; scientific satellites like the Hubble; Earth observation satellites from companies like Planet Labs, Umbra, and HawkEye 360; GPS; miniature CubeSats for education and research; and military/defense satellites.

Loading next visibility...
Identifier
65821, 2025-220E
Orbit
LEO
Country
Flag of CNCN / PRC
Related business
Manufacturer
SECM
Mission
Operational Civil Communications
Bus & Motor
XINGWANG S, Unknown motor
Mass
~800 kg wet, ~800 kg dry
Launch date (UTC)
2025-09-27 (9 months ago)
Launch vehicle
CHANG ZHENG 6A
Launch site
Taiyaun Space Center, China (TSC)
Object type
Payload
Rocket body
Debris
Shape & HBR
Box + 2 Pan, 1.1 m
Radar Cross Section
5.935 m², Large (>1 m²)

Expand to show TLE details & history
Last TLE update: 14 hours ago

TLE from 14 hours ago
0 HULIANWANG DIGUI-86
1 65821U 25220E   26171.38284094  .00000040  00000-0  58014-4 0  9994
2 65821  86.4966  42.7548 0001938  87.5880 272.5476 13.24410290 35344
Epoch: 2026-06-20T09:11Z
TLE epoch observation values (Epoch: 2026-06-20T09:11:17.457Z)
Latitude
Longitude
-3.6662°
Altitude
1,170.751 km
Speed
7.268 km/s
True Right ascension
02h 51m 01s
True Declination
0° 00' 00"
Sunlit
Object was in daylight at epoch
Visualization orbit readout
Latitude
Unknown
Longitude
Unknown
Altitude
Unknown
Speed
Unknown
Apparent Right ascension
Unknown
Apparent Declination
Unknown
Sunlit
N/A
Visualization observer readout
Local Sidereal Time
10:18:59
Azimuth
Unknown
Elevation
Unknown
Doppler factor
Unknown
Orbital elements
Apogee altitude
1,166.503 km
Perigee altitude
1,163.579 km
Semi-major axis
7,543.178 km
Eccentricity
0.00019
Inclination
86.4966°
RAAN
42.7548°
Arg. of periapsis
87.588°
True anomaly
272.52541°
Mean anomaly
272.5476°
Eccentric anomaly
272.53651°
Mean motion
3.31293 °/min
Orbital period
108.67 mins
BSTAR
0.000058014
Loading maneuver chart data...
Computing Atmospheric mass density...
Loading historical data...
Loading historical data...
Loading historical data...
Loading historical data...
Loading historical data...
Loading historical data...
Loading historical data...

Documentation

Showing up to 5 results
|